[[{"header":{"parameterUnit":"m.s-1","parameterCategory":1,"la1":30.2991,"la2":30.254,"lo1":-89.0895,"lo2":-89.0444,"dy":0.0017,"dx":0.0017,"nx":28,"ny":28,"refTime":"2024-04-07T09:00:00:Z","depth":0,"parameterNumber":2,"parameterNumberName":"U-component_of_WINDS"},"data":[0,0,0,0,0,0,0,0,0,0,0,0,0,0,0,0,0,0,0,0,0,0,0,0,0,0,0,0,0,0,0,0,0,0,0,0,0,0,0,0,0,0,0,0,0,0,0,0,0,0,0,0,0,0,0,0,0,0,-3.8458,-3.8459,0,-3.8557,-3.8558,-3.8559,-3.8559,-3.8558,-3.8557,-3.8556,-3.8658,-3.8662,-3.8666,0,0,0,0,0,0,0,0,0,0,0,0,0,-3.8271,-3.8274,-3.8458,-3.8459,-3.846,-3.8557,-3.8558,-3.856,-3.856,-3.8558,-3.8557,-3.8555,-3.8657,-3.8661,-3.8666,0,0,0,0,0,0,0,0,0,0,0,0,0,-3.8359,-3.8275,-3.8457,-3.8472,-3.8474,-3.8557,-3.8558,-3.856,-3.856,-3.8558,-3.8556,-3.8554,-3.8655,-3.8661,-3.8667,-3.8742,0,0,-3.8685,-3.8687,0,0,0,0,0,0,0,0,-3.8354,-3.8366,-3.8469,-3.8471,-3.8474,-3.8544,-3.853,-3.8621,-3.856,-3.8527,-3.8556,-3.8553,-3.8622,-3.863,-3.8653,-3.8746,-3.8751,-3.8685,-3.8689,-3.8691,-3.8693,0,0,0,0,0,0,0,-3.8348,-3.8362,-3.8497,-3.847,-3.8473,-3.8474,-3.8485,-3.8547,-3.8584,-3.853,-3.853,-3.8542,-3.8623,-3.8647,-3.8655,-3.8752,-3.8685,-3.869,-3.8694,-3.8696,-3.8913,-3.8915,0,0,0,0,0,0,-3.8339,-3.8357,-3.8494,-3.85,-3.8408,-3.8479,-3.8491,-3.8523,-3.8583,-3.8591,-3.8544,-3.8542,-3.8638,-3.8649,-3.8659,-3.875,-3.8691,-3.8697,-3.87,-3.8911,-3.8914,-3.8916,0,0,0,0,0,0,-3.8335,-3.8351,-3.849,-3.8428,-3.8446,-3.8484,-3.8521,-3.8526,-3.8551,-3.8594,-3.86,-3.8562,-3.8637,-3.8651,-3.8721,-3.8754,-3.8699,-3.8705,-3.8908,-3.8912,-3.8915,-3.8933,0,0,0,0,0,0,-3.8329,-3.8349,-3.8377,-3.8429,-3.8449,-3.8549,-3.8523,-3.853,-3.8561,-3.8559,-3.8612,-3.8619,-3.8637,-3.8712,-3.8727,-3.8761,-3.8709,-3.8906,-3.891,-3.8914,-3.893,-3.8937,-3.8943,0,0,0,0,0,-3.8323,-3.8378,-3.8379,-3.8395,-3.8485,-3.8551,-3.8563,-3.8581,-3.8563,-3.8592,-3.862,-3.8618,-3.8749,-3.872,-3.8736,-3.8772,-3.8903,-3.8909,-3.8914,-3.8927,-3.8935,-3.8943,0,0,0,0,0,0,-3.8329,-3.8385,-3.8386,-3.846,-3.8501,-3.8551,-3.8587,-3.859,-3.8636,-3.8633,-3.8655,-3.8667,-3.8737,-3.8762,-3.8729,-3.8849,-3.8824,-3.8833,-3.8828,-3.8837,-3.8843,-3.8834,-3.8714,0,0,0,0,0,-3.8339,-3.8388,-3.8435,-3.8496,-3.8516,-3.8549,-3.8578,-3.8589,-3.8632,-3.8649,-3.8682,-3.8725,-3.8776,-3.8808,-3.8857,-3.8935,-3.8946,-3.8968,-3.8975,-3.898,-3.8986,-3.9029,-3.9039,-3.8933,-3.8933,-3.8933,0,0,-3.836,-3.8397,-3.8426,-3.8498,-3.8531,-3.8581,-3.8563,-3.8617,-3.8654,-3.8658,-3.8725,-3.8752,-3.8801,-3.8875,-3.891,-3.8898,-3.9019,-3.8986,-3.899,-3.8993,-3.9035,-3.9045,-3.9054,-3.8936,-3.8935,-3.8935,0,0,-3.8424,-3.8457,-3.8511,-3.8545,-3.8595,-3.8617,-3.8631,-3.8681,-3.8698,-3.8768,-3.8771,-3.8818,-3.8904,-3.8939,-3.8968,-3.9049,-3.9048,-3.9065,-3.9097,-3.9139,-3.9147,-3.9155,-3.9182,-3.9192,-3.9071,-3.9071,-3.9071,0,-3.8443,-3.8518,-3.8539,-3.8593,-3.8625,-3.8632,-3.8687,-3.8719,-3.8783,-3.8805,-3.8792,-3.8902,-3.8936,-3.9018,-3.9038,-3.9062,-3.9078,-3.9056,-3.9144,-3.9152,-3.9159,-3.9186,-3.9196,-3.9073,-3.9073,-3.9072,-3.9072,0,-3.854,-3.8592,-3.863,-3.8692,-3.8728,-3.8783,-3.8813,-3.8847,-3.8857,-3.888,-3.8951,-3.8992,-3.905,-3.9071,-3.9081,-3.9156,-3.9147,-3.914,-3.9115,-3.917,-3.9196,-3.9206,-3.9075,-3.9074,-3.9074,-3.9074,0,0,-3.8606,-3.868,-3.8694,-3.8722,-3.878,-3.8821,-3.8877,-3.8934,-3.8963,-3.9008,-3.9055,-3.913,-3.9124,-3.9157,-3.9171,-3.9208,-3.9269,-3.9196,-3.9197,-3.9206,-3.9354,-3.9357,-3.9368,-3.927,-3.9272,-3.9274,-3.9349,0,-3.8674,-3.8772,-3.8794,-3.8878,-3.8927,-3.8937,-3.8986,-3.9027,-3.9051,-3.9097,-3.9125,-3.9177,-3.9165,-3.9185,-3.9223,-3.9253,-3.9298,-3.9249,-3.9314,-3.9316,-3.9298,-3.9382,-3.9385,-3.9453,-3.9359,-3.9361,-3.9362,0,-3.8765,-3.8812,-3.8902,-3.8954,-3.8975,-3.9019,-3.9073,-3.9117,-3.9165,-3.9181,-3.9219,-3.923,-3.929,-3.9265,-3.9348,-3.9314,-3.9343,-3.9362,-3.9365,-3.9369,-3.934,-3.9386,-3.9476,-3.9485,-3.9378,-3.9377,-3.9376,0,-3.8802,-3.8888,-3.8953,-3.8977,-3.9041,-3.9071,-3.9099,-3.9145,-3.9178,-3.9227,-3.9249,-3.9304,-3.9333,-3.9377,-3.9403,-3.9382,-3.9483,-3.9461,-3.9497,-3.9496,-3.9515,-3.9513,-3.9608,-3.9538,-3.9538,-3.9538,-3.9538,0,-3.8873,-3.8927,-3.897,-3.901,-3.9071,-3.9098,-3.9158,-3.9186,-3.9228,-3.9274,-3.9287,-3.933,-3.9363,-3.9411,-3.9432,-3.9497,-3.9511,-3.9525,-3.953,-3.9522,-3.952,-3.9539,-3.9534,-3.9541,-3.954,-3.954,-3.9539,0,-3.8923,-3.8954,-3.9025,-3.908,-3.9096,-3.9138,-3.9186,-3.9225,-3.9252,-3.931,-3.9325,-3.9367,-3.9424,-3.9455,-3.9528,-3.9542,-3.9614,-3.9618,-3.9597,-3.9599,-3.9633,-3.9628,-3.9741,-3.9757,-3.9679,-3.968,-3.968,0,-3.8965,-3.9006,-3.9067,-3.9098,-3.9127,-3.9178,-3.9212,-3.9241,-3.9276,-3.9335,-3.9368,-3.9426,-3.9474,-3.9566,-3.9603,-3.9659,-3.9662,-3.9698,-3.967,-3.9662,-3.966,-3.9656,-3.966,-3.9701,-3.9702,-3.9703,-3.9703,0,-3.9035,-3.9049,-3.9098,-3.9153,-3.9194,-3.9238,-3.9282,-3.9308,-3.9345,-3.9384,-3.9443,-3.948,-3.9555,-3.9612,-3.9672,-3.9701,-3.9708,-3.9712,-3.9723,-3.9714,-3.97,-3.9707,-3.9608,-3.9708,-3.9708,-3.9707,-3.9707,-3.9707,-3.9081,-3.9119,-3.9167,-3.9221,-3.9258,-3.93,-3.934,-3.9372,-3.9421,-3.9483,-3.9499,-3.9561,-3.961,-3.969,-3.9722,-3.9772,-3.9765,-3.9781,-3.9785,-3.9788,-3.9788,-3.9695,-3.9783,-3.9783,-3.9783,-3.9783,-3.9783,0,-3.915,-3.9183,-3.9233,-3.9294,-3.9338,-3.9342,-3.9392,-3.9428,-3.9482,-3.9528,-3.9575,-3.9644,-3.9701,-3.9743,-3.9802,-3.9833,-3.9838,-3.9848,-3.9844,-3.9851,-3.9792,-3.9776,-3.9843,-3.9843,-3.9843,-3.9843,-3.9843,-3.9843,-3.9191,-3.9255,-3.9276,-3.9359,-3.9391,-3.9452,-3.948,-3.9519,-3.9555,-3.9631,-3.9678,-3.9706,-3.9751,-3.9814,-3.9867,-3.9878,-3.9898,-3.9907,-3.9918,-3.9861,-3.9855,-3.9849,-3.9833,-3.9911,-3.9912,-3.9972,-3.9973,-3.9973]},{"header":{"parameterUnit":"m.s-1","parameterCategory":1,"la1":30.2991,"la2":30.254,"lo1":-89.0895,"lo2":-89.0444,"dy":0.0017,"dx":0.0017,"nx":28,"ny":28,"refTime":"2024-04-07T09:00:00:Z","depth":0,"parameterNumber":3,"parameterNumberName":"V-component_of_WINDS"},"data":[0,0,0,0,0,0,0,0,0,0,0,0,0,0,0,0,0,0,0,0,0,0,0,0,0,0,0,0,0,0,0,0,0,0,0,0,0,0,0,0,0,0,0,0,0,0,0,0,0,0,0,0,0,0,0,0,0,0,3.6449,3.6448,0,3.6383,3.6383,3.6382,3.6314,3.6313,3.6312,3.6311,3.624,3.6239,3.6238,0,0,0,0,0,0,0,0,0,0,0,0,0,3.6511,3.6511,3.6449,3.6448,3.6447,3.6384,3.6383,3.6382,3.6314,3.6313,3.6311,3.631,3.624,3.6239,3.6238,0,0,0,0,0,0,0,0,0,0,0,0,0,3.6469,3.651,3.6449,3.6406,3.6401,3.6384,3.6383,3.6381,3.6314,3.6313,3.6311,3.631,3.624,3.6239,3.6237,3.6256,0,0,3.6233,3.6232,0,0,0,0,0,0,0,0,3.6471,3.6467,3.6413,3.6409,3.6404,3.6355,3.6379,3.6339,3.6314,3.6347,3.6311,3.6309,3.6279,3.6274,3.6265,3.6253,3.625,3.6233,3.6232,3.6231,3.6231,0,0,0,0,0,0,0,3.6474,3.6469,3.6423,3.6412,3.6406,3.6388,3.6381,3.6371,3.6321,3.6344,3.6339,3.6332,3.6276,3.6267,3.6263,3.6249,3.6233,3.6231,3.623,3.623,3.6249,3.625,0,0,0,0,0,0,3.6484,3.6472,3.6425,3.6421,3.6435,3.6388,3.638,3.6372,3.6321,3.6313,3.6334,3.6329,3.627,3.6265,3.626,3.6278,3.6231,3.623,3.6229,3.6247,3.6249,3.625,0,0,0,0,0,0,3.6486,3.6481,3.6427,3.6445,3.6437,3.6389,3.6381,3.6372,3.6362,3.6314,3.6304,3.6333,3.6269,3.6262,3.6258,3.6275,3.6229,3.6228,3.6245,3.6248,3.625,3.6316,0,0,0,0,0,0,3.6488,3.6482,3.6489,3.6446,3.6436,3.6428,3.6382,3.6371,3.636,3.6354,3.6311,3.6302,3.6267,3.6261,3.6256,3.6272,3.6226,3.6244,3.6246,3.6249,3.6312,3.632,3.6327,0,0,0,0,0,3.6491,3.6509,3.649,3.6485,3.6445,3.6429,3.6423,3.6384,3.6362,3.6368,3.6337,3.6303,3.6274,3.6261,3.6255,3.6271,3.6242,3.6246,3.6249,3.6308,3.6318,3.6326,0,0,0,0,0,0,3.6554,3.6503,3.6481,3.6486,3.6463,3.6417,3.6424,3.6395,3.6376,3.6371,3.6322,3.6312,3.6314,3.6292,3.6278,3.6286,3.6253,3.6256,3.6301,3.6309,3.6317,3.6322,3.6225,0,0,0,0,0,3.657,3.6562,3.6517,3.6526,3.6516,3.6473,3.6464,3.6436,3.6409,3.6398,3.6367,3.6341,3.6325,3.6316,3.63,3.6309,3.6298,3.6316,3.6324,3.633,3.6333,3.6335,3.6343,3.6261,3.6261,3.6261,0,0,3.66,3.6571,3.6569,3.6538,3.6517,3.6509,3.6464,3.6458,3.6452,3.6396,3.6391,3.6367,3.6335,3.6337,3.6337,3.6319,3.6353,3.6334,3.634,3.6338,3.6339,3.6347,3.6354,3.6263,3.6263,3.6262,0,0,3.6651,3.6629,3.6634,3.6614,3.6583,3.6554,3.6555,3.6515,3.6497,3.6491,3.645,3.6441,3.6416,3.6395,3.638,3.6426,3.6393,3.6421,3.646,3.6463,3.647,3.6475,3.6491,3.6497,3.6424,3.6424,3.6424,0,3.6692,3.6681,3.664,3.6637,3.6625,3.6576,3.6581,3.6563,3.6527,3.6519,3.65,3.6468,3.6443,3.644,3.6451,3.6441,3.6441,3.6425,3.6472,3.6477,3.6482,3.6496,3.6502,3.6428,3.6427,3.6427,3.6427,0,3.6733,3.6725,3.6733,3.6702,3.669,3.6691,3.665,3.6643,3.6616,3.6589,3.6583,3.6552,3.6528,3.6525,3.6498,3.6518,3.6508,3.6482,3.6447,3.6494,3.6506,3.6512,3.6433,3.6431,3.643,3.643,0,0,3.6821,3.6769,3.6772,3.6757,3.672,3.6712,3.6711,3.6689,3.6684,3.6661,3.6658,3.6639,3.6614,3.6598,3.6568,3.6572,3.6609,3.6544,3.6543,3.6557,3.6628,3.6648,3.6655,3.6588,3.6589,3.659,3.6631,0,3.6865,3.6861,3.6825,3.683,3.6823,3.6777,3.6776,3.6752,3.6727,3.6716,3.6687,3.6675,3.6643,3.6634,3.6635,3.6604,3.6622,3.6601,3.6583,3.6583,3.6592,3.6662,3.6682,3.6723,3.6636,3.6636,3.6637,0,3.6916,3.6898,3.6903,3.6866,3.6862,3.6861,3.6839,3.6829,3.6801,3.6783,3.6766,3.6733,3.6728,3.6697,3.6688,3.6675,3.6665,3.6649,3.665,3.6646,3.6612,3.6659,3.6735,3.6741,3.6644,3.6644,3.6643,0,3.6979,3.6957,3.6957,3.6946,3.6902,3.6903,3.6885,3.6856,3.6845,3.6825,3.6818,3.6797,3.6785,3.677,3.6732,3.6713,3.6727,3.6693,3.6711,3.6712,3.6715,3.6715,3.679,3.6711,3.6711,3.671,3.671,0,3.7032,3.7037,3.6985,3.6985,3.6989,3.6947,3.6952,3.6929,3.6904,3.6898,3.6857,3.6852,3.6802,3.6792,3.6762,3.6759,3.6754,3.6738,3.673,3.6741,3.6743,3.6734,3.673,3.6712,3.6712,3.6711,3.6711,0,3.7103,3.7068,3.7066,3.7026,3.7016,3.702,3.6985,3.6983,3.6957,3.695,3.6945,3.6903,3.6888,3.6849,3.6824,3.6804,3.6809,3.6794,3.6819,3.6813,3.6833,3.6832,3.6903,3.691,3.6828,3.6829,3.683,0,3.7138,3.7141,3.7102,3.7096,3.708,3.7071,3.706,3.702,3.701,3.6979,3.6981,3.6963,3.6946,3.6925,3.6891,3.6871,3.6855,3.6882,3.6852,3.6863,3.6855,3.6855,3.6854,3.6888,3.6889,3.689,3.6891,0,3.7205,3.7188,3.7175,3.7157,3.7146,3.7129,3.711,3.7107,3.7061,3.7052,3.7038,3.7025,3.7,3.6983,3.6958,3.6938,3.6906,3.6901,3.6904,3.6915,3.6929,3.6921,3.6836,3.6899,3.6898,3.6897,3.6897,3.6897,3.7258,3.7259,3.7232,3.7219,3.7201,3.7184,3.718,3.7154,3.7141,3.7119,3.7095,3.7083,3.7055,3.7019,3.7001,3.699,3.6974,3.6978,3.6979,3.698,3.6985,3.6932,3.6985,3.6985,3.6985,3.6985,3.6984,0,3.7322,3.7303,3.7292,3.7267,3.7257,3.7231,3.7208,3.7201,3.7191,3.7168,3.7154,3.7137,3.712,3.7085,3.7065,3.7063,3.7048,3.7059,3.7058,3.7054,3.7001,3.7001,3.7072,3.7071,3.7071,3.7071,3.7071,3.7071,3.7354,3.7354,3.7334,3.7324,3.7304,3.7293,3.7282,3.7266,3.7248,3.7232,3.7218,3.7197,3.7169,3.7146,3.713,3.712,3.7114,3.7129,3.7115,3.7066,3.7058,3.705,3.7049,3.7128,3.7129,3.7168,3.7168,3.7169]}]]